| time (UTC) | temp F | wind direction | speed MPH | gust MPH | rain 1hr in | rain 24hr in | rain mn in | humidity % | barometer mb |
| 20260508184534 | 68 | 325 | 0.0 | 8.0 | 0.00 | 0.00 | 0.00 | 51 | 1015.2 |
| 20260508183035 | 69 | 325 | 0.0 | 3.0 | 0.00 | 0.00 | 0.00 | 54 | 1015.3 |
| 20260508181532 | 69 | 195 | 0.0 | 6.0 | 0.00 | 0.00 | 0.00 | 53 | 1015.4 |
| 20260508180031 | 68 | 205 | 0.0 | 1.0 | 0.00 | 0.00 | 0.00 | 55 | 1015.5 |
| 20260508174529 | 68 | 184 | 0.0 | 7.0 | 0.00 | 0.00 | 0.00 | 58 | 1015.6 |
| 20260508173027 | 67 | 163 | 0.0 | 7.0 | 0.00 | 0.00 | 0.00 | 60 | 1016.0 |
| 20260508171529 | 67 | 273 | 0.0 | 3.0 | 0.00 | 0.00 | 0.00 | 56 | 1016.1 |
| 20260508170026 | 68 | 227 | 0.0 | 4.0 | 0.00 | 0.00 | 0.00 | 57 | 1016.3 |
| 20260508164523 | 66 | 109 | 3.0 | 6.0 | 0.00 | 0.01 | 0.00 | 58 | 1016.7 |
| 20260508163028 | 65 | 186 | 2.0 | 5.0 | 0.00 | 0.01 | 0.00 | 57 | 1016.8 |
| 20260508161518 | 64 | 133 | 2.0 | 3.0 | 0.00 | 0.01 | 0.00 | 57 | 1016.9 |
| 20260508160022 | 64 | 19 | 0.0 | 4.0 | 0.00 | 0.01 | 0.00 | 58 | 1017.1 |
| 20260508154518 | 65 | 12 | 0.0 | 4.0 | 0.00 | 0.01 | 0.00 | 58 | 1017.3 |
| 20260508153016 | 65 | 194 | 0.0 | 4.0 | 0.00 | 0.01 | 0.00 | 57 | 1017.5 |
| 20260508151513 | 64 | 229 | 0.0 | 6.0 | 0.00 | 0.01 | 0.00 | 57 | 1017.5 |
| 20260508150032 | 63 | 10 | 1.0 | 4.0 | 0.00 | 0.01 | 0.00 | 60 | 1017.3 |
| 20260508144508 | 62 | 5 | 2.0 | 7.0 | 0.00 | 0.02 | 0.00 | 61 | 1017.5 |
| 20260508143009 | 62 | 9 | 1.0 | 5.0 | 0.00 | 0.02 | 0.00 | 61 | 1017.5 |
| 20260508141504 | 61 | 304 | 0.0 | 5.0 | 0.00 | 0.02 | 0.00 | 67 | 1017.6 |
| 20260508140113 | 60 | 343 | 0.0 | 6.0 | 0.00 | 0.02 | 0.00 | 67 | 1017.7 |
| 20260508134556 | 59 | 319 | 1.0 | 3.0 | 0.00 | 0.02 | 0.00 | 76 | 1017.7 |
| 20260508133104 | 57 | 5 | 0.0 | 3.0 | 0.00 | 0.02 | 0.00 | 81 | 1017.5 |
| 20260508131548 | 55 | 339 | 0.0 | 0.0 | 0.00 | 0.02 | 0.00 | 97 | 1017.4 |
| 20260508130047 | 53 | 333 | 0.0 | 0.0 | 0.00 | 0.02 | 0.00 | 100 | 1017.4 |
| 20260508124545 | 52 | 325 | 0.0 | 0.0 | 0.00 | 0.02 | 0.00 | 100 | 1017.3 |
| 20260508123045 | 50 | 325 | 0.0 | 0.0 | 0.00 | 0.02 | 0.00 | 100 | 1017.0 |
| 20260508121542 | 48 | 325 | 0.0 | 0.0 | 0.00 | 0.02 | 0.00 | 100 | 1017.0 |
| 20260508120044 | 47 | 325 | 0.0 | 0.0 | 0.00 | 0.02 | 0.00 | 99 | 1016.8 |
| 20260508114540 | 47 | 325 | 0.0 | 0.0 | 0.00 | 0.02 | 0.00 | 99 | 1016.6 |
| 20260508113036 | 46 | 325 | 0.0 | 0.0 | 0.00 | 0.02 | 0.00 | 99 | 1016.3 |
| 20260508111534 | 46 | 325 | 0.0 | 0.0 | 0.00 | 0.02 | 0.00 | 98 | 1016.1 |
| 20260508110031 | 46 | 325 | 0.0 | 0.0 | 0.00 | 0.02 | 0.00 | 98 | 1015.7 |
| 20260508104529 | 45 | 325 | 0.0 | 0.0 | 0.00 | 0.02 | 0.00 | 98 | 1015.6 |
| 20260508103026 | 46 | 325 | 0.0 | 0.0 | 0.00 | 0.02 | 0.00 | 98 | 1015.4 |
| 20260508101524 | 46 | 325 | 0.0 | 0.0 | 0.00 | 0.02 | 0.00 | 98 | 1014.9 |
| 20260508100026 | 46 | 325 | 0.0 | 0.0 | 0.00 | 0.02 | 0.00 | 98 | 1014.8 |
| 20260508094521 | 46 | 325 | 0.0 | 0.0 | 0.00 | 0.02 | 0.00 | 98 | 1014.7 |
| 20260508093019 | 46 | 325 | 0.0 | 0.0 | 0.00 | 0.02 | 0.00 | 97 | 1014.8 |
| 20260508091518 | 46 | 325 | 0.0 | 0.0 | 0.00 | 0.02 | 0.00 | 97 | 1014.5 |
| 20260508090015 | 47 | 325 | 0.0 | 0.0 | 0.00 | 0.02 | 0.00 | 97 | 1014.4 |
| 20260508084513 | 47 | 325 | 0.0 | 0.0 | 0.00 | 0.02 | 0.00 | 97 | 1014.3 |
| 20260508083011 | 47 | 325 | 0.0 | 0.0 | 0.00 | 0.02 | 0.00 | 97 | 1014.3 |
| 20260508081512 | 48 | 325 | 0.0 | 0.0 | 0.00 | 0.02 | 0.00 | 97 | 1014.0 |
| 20260508080020 | 48 | 325 | 0.0 | 0.0 | 0.00 | 0.02 | 0.00 | 97 | 1014.0 |
| 20260508074505 | 48 | 325 | 0.0 | 0.0 | 0.00 | 0.02 | 0.00 | 97 | 1013.8 |
| 20260508073004 | 49 | 325 | 0.0 | 0.0 | 0.00 | 0.02 | 0.00 | 97 | 1013.7 |
| 20260508071502 | 49 | 325 | 0.0 | 0.0 | 0.00 | 0.02 | 0.00 | 97 | 1013.8 |
| 20260508070104 | 49 | 325 | 0.0 | 0.0 | 0.00 | 0.02 | 0.00 | 97 | 1013.5 |
| 20260508064601 | 49 | 325 | 0.0 | 0.0 | 0.00 | 0.02 | 0.00 | 96 | 1013.5 |
| 20260508063057 | 50 | 325 | 0.0 | 0.0 | 0.00 | 0.02 | 0.00 | 96 | 1013.4 |
| 20260508061556 | 50 | 325 | 0.0 | 0.0 | 0.00 | 0.02 | 0.00 | 96 | 1013.6 |
| 20260508060057 | 51 | 325 | 0.0 | 0.0 | 0.00 | 0.02 | 0.00 | 96 | 1013.5 |
| 20260508054554 | 51 | 325 | 0.0 | 0.0 | 0.00 | 0.02 | 0.00 | 96 | 1013.6 |
| 20260508053054 | 52 | 325 | 0.0 | 0.0 | 0.00 | 0.02 | 0.00 | 96 | 1013.5 |
| 20260508051550 | 53 | 325 | 0.0 | 0.0 | 0.00 | 0.02 | 0.00 | 96 | 1013.2 |
| 20260508050054 | 54 | 325 | 0.0 | 0.0 | 0.00 | 0.02 | 0.00 | 96 | 1013.3 |
| 20260508044542 | 55 | 325 | 0.0 | 0.0 | 0.00 | 0.02 | 0.00 | 96 | 1013.2 |
| 20260508043035 | 56 | 325 | 0.0 | 0.0 | 0.00 | 0.02 | 0.00 | 97 | 1013.0 |
| 20260508041533 | 56 | 325 | 0.0 | 0.0 | 0.00 | 0.02 | 0.00 | 97 | 1012.9 |
| 20260508040047 | 57 | 325 | 0.0 | 0.0 | 0.00 | 0.02 | 0.00 | 97 | 1012.8 |
| 20260508034539 | 57 | 325 | 0.0 | 0.0 | 0.00 | 0.02 | 0.02 | 96 | 1012.8 |
| 20260508033029 | 57 | 325 | 0.0 | 0.0 | 0.00 | 0.02 | 0.02 | 96 | 1012.7 |
| 20260508031531 | 58 | 325 | 0.0 | 0.0 | 0.00 | 0.02 | 0.02 | 96 | 1012.7 |
| 20260508030024 | 58 | 325 | 0.0 | 0.0 | 0.00 | 0.02 | 0.02 | 96 | 1012.6 |
| 20260508024525 | 59 | 325 | 0.0 | 0.0 | 0.00 | 0.02 | 0.02 | 96 | 1012.6 |
| 20260508023020 | 59 | 325 | 0.0 | 4.0 | 0.00 | 0.02 | 0.02 | 95 | 1012.4 |
| 20260508021519 | 60 | 130 | 0.0 | 0.0 | 0.00 | 0.02 | 0.02 | 95 | 1012.1 |
| 20260508020017 | 60 | 130 | 0.0 | 0.0 | 0.00 | 0.02 | 0.02 | 95 | 1012.0 |
| 20260508014516 | 60 | 130 | 0.0 | 0.0 | 0.00 | 0.02 | 0.02 | 95 | 1011.8 |
| 20260508013114 | 60 | 132 | 0.0 | 0.0 | 0.00 | 0.02 | 0.02 | 95 | 1011.2 |
| 20260508011514 | 61 | 21 | 0.0 | 0.0 | 0.00 | 0.02 | 0.02 | 95 | 1011.0 |
| 20260508010014 | 61 | 21 | 0.0 | 1.0 | 0.00 | 0.02 | 0.02 | 94 | 1010.7 |
| 20260508004511 | 61 | 145 | 0.0 | 4.0 | 0.00 | 0.02 | 0.02 | 94 | 1010.4 |
| 20260508003009 | 61 | 34 | 0.0 | 3.0 | 0.00 | 0.02 | 0.02 | 94 | 1010.1 |
| 20260508001513 | 62 | 173 | 1.0 | 3.0 | 0.00 | 0.02 | 0.02 | 93 | 1010.0 |
| 20260508000007 | 62 | 11 | 0.0 | 3.0 | 0.00 | 0.02 | 0.02 | 93 | 1009.2 |
| 20260507234508 | 63 | 286 | 0.0 | 5.0 | 0.00 | 0.04 | 0.02 | 92 | 1009.0 |
| 20260507233009 | 63 | 308 | 0.0 | 8.0 | 0.00 | 0.04 | 0.02 | 91 | 1008.8 |
| 20260507231504 | 65 | 355 | 1.0 | 14.0 | 0.00 | 0.04 | 0.02 | 89 | 1008.0 |
| 20260507230013 | 67 | 5 | 1.0 | 6.0 | 0.00 | 0.04 | 0.02 | 85 | 1007.7 |
| 20260507224502 | 72 | 276 | 1.0 | 13.0 | 0.00 | 0.04 | 0.02 | 78 | 1007.3 |
| 20260507223003 | 77 | 331 | 0.0 | 6.0 | 0.00 | 0.04 | 0.02 | 73 | 1006.4 |
| 20260507221500 | 77 | 292 | 0.0 | 6.0 | 0.00 | 0.04 | 0.02 | 70 | 1006.0 |
| 20260507220059 | 77 | 245 | 1.0 | 7.0 | 0.00 | 0.04 | 0.02 | 73 | 1006.1 |
| 20260507214600 | 76 | 170 | 0.0 | 5.0 | 0.00 | 0.04 | 0.02 | 75 | 1006.2 |
| 20260507213058 | 76 | 300 | 0.0 | 4.0 | 0.00 | 0.04 | 0.02 | 76 | 1006.0 |
| 20260507211602 | 76 | 261 | 1.0 | 7.0 | 0.00 | 0.04 | 0.02 | 74 | 1006.0 |
| 20260507210112 | 76 | 279 | 0.0 | 7.0 | 0.00 | 0.04 | 0.02 | 76 | 1005.9 |
| 20260507204554 | 77 | 90 | 0.0 | 6.0 | 0.00 | 0.04 | 0.02 | 74 | 1006.1 |
| 20260507203053 | 76 | 234 | 0.0 | 10.0 | 0.00 | 0.04 | 0.02 | 74 | 1006.2 |
| 20260507201555 | 76 | 161 | 0.0 | 6.0 | 0.00 | 0.04 | 0.02 | 75 | 1005.6 |
| 20260507200057 | 76 | 177 | 0.0 | 4.0 | 0.00 | 0.04 | 0.02 | 78 | 1006.2 |
| 20260507194557 | 76 | 254 | 4.0 | 11.0 | 0.00 | 0.04 | 0.02 | 72 | 1006.2 |
| 20260507193048 | 76 | 72 | 1.0 | 8.0 | 0.00 | 0.04 | 0.02 | 73 | 1006.5 |
| 20260507191548 | 75 | 248 | 0.0 | 7.0 | 0.00 | 0.04 | 0.02 | 75 | 1006.8 |
| 20260507190050 | 75 | 290 | 1.0 | 12.0 | 0.00 | 0.04 | 0.02 | 74 | 1007.1 |